STARLINK-11319, 61251

Orbit data source: Space-Track

STARLINK-11319, 61251 is a payload satellite owned by SpaceX/Seattle (US) in LEO that was launched on Wed, 25 Sep 2024 UTC via an FALCON 9 launch vehicle from the Air Force Western Test Range (AFWTR). Payload-class satellites include a variety of spacecraft equipped with specific instruments for various scientific and technological missions. These include communications satellites like Starlink; space stations such as the ISS; scientific satellites like the Hubble; Earth observation satellites from companies like Planet Labs, Umbra, and HawkEye 360; GPS; miniature CubeSats for education and research; and military/defense satellites.

Loading next visibility...
Identifier
61251, 2024-175J
Orbit
LEO
Last TLE update
1 day ago
Origin
Manufacturer
SpaceX/Seattle
Mission
Operational Commercial Communications
Bus & Motor
STARLINK V2M, Unknown motor
Mass
730 kg wet, ~700 kg dry
Launch date (UTC)
2024-09-25 (7 months ago)
Launch vehicle
FALCON 9
Launch site
Air Force Western Test Range (AFWTR)
Object type
Payload
Rocket body
Debris
Shape & HBR
Box + 2 Pan, 29 m
Radar Cross Section
36.964 m², Large (>1 m²)

Expand to show TLE details & history

TLE from 1 day ago
0 STARLINK-11319
1 61251U 24175J   25128.27644861  .00004540  00000-0  42305-4 0  9991
2 61251  53.1577 122.1543 0001398  43.2253 316.8875 15.69713809 35390
Epoch: 2025-05-08T06:38Z
Definitive object data (Epoch: 2025-05-08T06:38:05.159Z)
Latitude
Longitude
156.28354°
Altitude
359.943 km
Speed
7.695 km/s
True Right ascension
08h 08m 37s
True Declination
0° 00' 00"
Sunlit
Object was in daylight at TLE epoch
Visualization TLE readout
Latitude
-53.01828°
Longitude
69.69294°
Altitude
378.72 km
Speed
7.682 km/s
Apparent Right ascension
02h 38m 37s
Apparent Declination
-46° 32' 01"
Sunlit
Object is in daylight
Visualization observer readout
Local Sidereal Time
14:52:14
Azimuth
160.614° S
Elevation
-82.935°
Doppler factor
1
Orbital elements
Apogee altitude
360.919 km
Perigee altitude
359.035 km
Semi-major axis
6,738.114 km
Eccentricity
0.0001398
Inclination
53.1577°
RAAN
122.1543°
Arg. of periapsis
43.2253°
True anomaly
316.87655°
Mean anomaly
316.8875°
Eccentric anomaly
316.88203°
Mean motion
3.92406 °/min
BSTAR
0.000042305
Orbital period
91.74 mins
Loading maneuver chart data...
Loading SW <> Apogee altitude chart data...
Loading historical data...
Loading historical data...
Loading historical data...
Loading historical data...
Loading historical data...
Loading historical data...
Loading historical data...

STARLINK-11319 Visibility forecast

Observer location: undefined°, undefined°

Span
Click to sort rows by Start time (UTC) header in descending order
Start Az.
Max El. time (UTC)
Max El. Az.
Max El.
End time (UTC)
End Az.
4 mins2025-05-09 09:07:21.260Z304.831° NW2025-05-09 09:09:21.260Z182.686° SSW43.514°2025-05-09 09:11:21.260Z137.309° SSE
4 mins2025-05-10 01:36:21.260Z207.574° SW2025-05-10 01:38:21.260Z111.621° ESE37.702°2025-05-10 01:40:21.260Z61.336° ENE
|